User: anonymous
Location: Terra Rouge Observatory
(46.0000°N, 62.7500°W)
Time: 04:33:18
(UTC-03:00)
Language:

Landsat 5 - Orbit

View from above orbital plane
View from above orbital plane
View from above satellite
View from above satellite

Ground track
Ground track

The orbit data is extracted from the following two-line orbital elements,

1 14780U 84021A   14259.33904589  .00002143  00000-0  21665-3 0  4210
2 14780 098.0493 338.2004 0094719 233.4820 175.6283 14.88875356626187
Epoch (UTC): 16 September 2014 08:08:13
Eccentricity: 0.0094719
inclination: 98.0493°
perigee height: 535 km
apogee height: 667 km
right ascension of ascending node: 338.2004°
argument of perigee: 233.4820°
revolutions per day: 14.88875356
mean anomaly at epoch: 175.6283°
orbit number at epoch: 62618

The dashed part of the orbit path shows where the satellite is in the earth's shadow,  

DLR